Time,TemperatureF,DewpointF,PressureIn,WindDirection,WindDirectionDegrees,WindSpeedMPH,WindSpeedGustMPH,Humidity,HourlyPrecipIn,Conditions,Clouds,dailyrainin,SoftwareType,DateUTC
2013-07-16 00:01:00,75.9,67.4,30.32,SSE,157,0.0,0.0,75,0.00,,,0.00,WUHU21623XXSP,2013-07-16 04:01:00,
2013-07-16 00:06:00,75.7,67.2,30.32,SSE,157,0.0,0.0,75,0.00,,,0.00,WUHU21623XXSP,2013-07-16 04:06:00,
2013-07-16 00:11:00,75.6,67.1,30.32,SSE,157,0.0,0.0,75,0.00,,,0.00,WUHU21623XXSP,2013-07-16 04:11:00,
2013-07-16 00:16:00,75.4,66.9,30.32,SSE,157,0.0,0.0,75,0.00,,,0.00,WUHU21623XXSP,2013-07-16 04:16:00,
2013-07-16 00:21:00,75.4,67.3,30.32,SSE,157,0.0,0.0,76,0.00,,,0.00,WUHU21623XXSP,2013-07-16 04:21:00,
2013-07-16 00:26:00,75.0,67.0,30.32,SSE,157,0.0,0.0,76,0.00,,,0.00,WUHU21623XXSP,2013-07-16 04:26:00,
2013-07-16 00:31:00,75.0,67.0,30.32,SSE,157,0.0,0.0,76,0.00,,,0.00,WUHU21623XXSP,2013-07-16 04:31:00,
2013-07-16 00:36:00,74.8,66.6,30.32,SSE,157,0.0,0.0,76,0.00,,,0.00,WUHU21623XXSP,2013-07-16 04:36:00,
2013-07-16 00:41:00,74.8,66.8,30.32,SSE,157,0.0,0.0,76,0.00,,,0.00,WUHU21623XXSP,2013-07-16 04:41:00,
2013-07-16 00:46:00,74.5,66.8,30.32,SSE,157,0.0,0.0,77,0.00,,,0.00,WUHU21623XXSP,2013-07-16 04:46:00,
2013-07-16 00:51:00,74.3,66.8,30.32,SSE,157,0.0,0.0,76,0.00,,,0.00,WUHU21623XXSP,2013-07-16 04:51:00,
2013-07-16 00:56:00,74.3,66.3,30.32,SSE,157,0.0,0.0,76,0.00,,,0.00,WUHU21623XXSP,2013-07-16 04:56:00,
2013-07-16 01:01:00,74.1,66.3,30.32,SSE,157,0.0,0.0,76,0.00,,,0.00,WUHU21623XXSP,2013-07-16 05:01:00,
2013-07-16 01:06:00,74.1,66.5,30.32,SSE,157,0.0,0.0,77,0.00,,,0.00,WUHU21623XXSP,2013-07-16 05:06:00,
2013-07-16 01:11:00,73.8,66.1,30.32,SSE,157,0.0,0.0,77,0.00,,,0.00,WUHU21623XXSP,2013-07-16 05:11:00,
2013-07-16 01:16:00,73.8,66.1,30.32,SSE,157,0.0,0.0,78,0.00,,,0.00,WUHU21623XXSP,2013-07-16 05:16:00,
2013-07-16 01:21:00,73.8,66.5,30.32,SSE,157,0.0,0.0,78,0.00,,,0.00,WUHU21623XXSP,2013-07-16 05:21:00,
2013-07-16 01:26:00,73.6,66.3,30.31,SSE,157,0.0,0.0,78,0.00,,,0.00,WUHU21623XXSP,2013-07-16 05:26:00,
2013-07-16 01:31:00,73.6,66.3,30.31,SSE,157,0.0,0.0,78,0.00,,,0.00,WUHU21623XXSP,2013-07-16 05:31:00,
2013-07-16 01:36:00,73.2,66.4,30.31,SSE,157,0.0,0.0,79,0.00,,,0.00,WUHU21623XXSP,2013-07-16 05:36:00,
2013-07-16 01:41:00,73.2,66.4,30.31,SSE,157,0.0,0.0,79,0.00,,,0.00,WUHU21623XXSP,2013-07-16 05:41:00,
2013-07-16 01:46:00,73.2,66.4,30.31,SSE,157,0.0,0.0,79,0.00,,,0.00,WUHU21623XXSP,2013-07-16 05:46:00,
2013-07-16 01:51:00,73.2,66.4,30.31,SSE,157,0.0,0.0,79,0.00,,,0.00,WUHU21623XXSP,2013-07-16 05:51:00,
2013-07-16 01:56:00,73.0,66.2,30.31,SSE,157,0.0,0.0,79,0.00,,,0.00,WUHU21623XXSP,2013-07-16 05:56:00,
2013-07-16 02:01:00,73.0,66.6,30.32,SSE,157,0.0,0.0,80,0.00,,,0.00,WUHU21623XXSP,2013-07-16 06:01:00,
2013-07-16 02:06:00,72.9,66.4,30.32,SSE,157,0.0,0.0,80,0.00,,,0.00,WUHU21623XXSP,2013-07-16 06:06:00,
2013-07-16 02:11:00,72.7,65.8,30.32,SSE,157,0.0,0.0,79,0.00,,,0.00,WUHU21623XXSP,2013-07-16 06:11:00,
2013-07-16 02:16:00,72.7,65.8,30.32,SSE,157,0.0,0.0,79,0.00,,,0.00,WUHU21623XXSP,2013-07-16 06:16:00,
2013-07-16 02:21:00,72.5,66.0,30.32,SSE,157,0.0,0.0,80,0.00,,,0.00,WUHU21623XXSP,2013-07-16 06:21:00,
2013-07-16 02:26:00,72.5,66.0,30.32,SSE,157,0.0,0.0,80,0.00,,,0.00,WUHU21623XXSP,2013-07-16 06:26:00,
2013-07-16 02:31:00,72.3,65.8,30.32,SSE,157,0.0,0.0,80,0.00,,,0.00,WUHU21623XXSP,2013-07-16 06:31:00,
2013-07-16 02:36:00,72.3,65.8,30.32,SSE,157,0.0,0.0,80,0.00,,,0.00,WUHU21623XXSP,2013-07-16 06:36:00,
2013-07-16 02:41:00,72.3,65.8,30.32,SSE,157,0.0,0.0,80,0.00,,,0.00,WUHU21623XXSP,2013-07-16 06:41:00,
2013-07-16 02:46:00,72.1,65.7,30.32,SSE,157,0.0,0.0,80,0.00,,,0.00,WUHU21623XXSP,2013-07-16 06:46:00,
2013-07-16 02:51:00,72.1,66.0,30.32,SSE,157,0.0,0.0,81,0.00,,,0.00,WUHU21623XXSP,2013-07-16 06:51:00,
2013-07-16 02:56:00,72.1,66.0,30.32,SSE,157,0.0,0.0,81,0.00,,,0.00,WUHU21623XXSP,2013-07-16 06:56:00,
2013-07-16 03:01:00,72.0,65.5,30.32,SSE,157,0.0,0.0,80,0.00,,,0.00,WUHU21623XXSP,2013-07-16 07:01:00,
2013-07-16 03:06:00,72.0,65.8,30.32,SSE,157,0.0,0.0,81,0.00,,,0.00,WUHU21623XXSP,2013-07-16 07:06:00,
2013-07-16 03:11:00,71.8,65.6,30.32,SSE,157,0.0,0.0,81,0.00,,,0.00,WUHU21623XXSP,2013-07-16 07:11:00,
2013-07-16 03:16:00,71.8,65.6,30.32,SSE,157,0.0,0.0,81,0.00,,,0.00,WUHU21623XXSP,2013-07-16 07:16:00,
2013-07-16 03:21:00,71.8,65.6,30.32,SSE,157,0.0,0.0,81,0.00,,,0.00,WUHU21623XXSP,2013-07-16 07:21:00,
2013-07-16 03:26:00,71.4,65.3,30.32,SSE,157,0.0,0.0,81,0.00,,,0.00,WUHU21623XXSP,2013-07-16 07:26:00,
2013-07-16 03:31:00,71.4,65.3,30.32,SSE,157,0.0,0.0,81,0.00,,,0.00,WUHU21623XXSP,2013-07-16 07:31:00,
2013-07-16 03:36:00,71.4,65.3,30.31,SSE,157,0.0,0.0,81,0.00,,,0.00,WUHU21623XXSP,2013-07-16 07:36:00,
2013-07-16 03:41:00,71.4,65.3,30.32,SSE,157,0.0,0.0,81,0.00,,,0.00,WUHU21623XXSP,2013-07-16 07:41:00,
2013-07-16 03:46:00,71.4,65.3,30.32,SSE,157,0.0,0.0,81,0.00,,,0.00,WUHU21623XXSP,2013-07-16 07:46:00,
2013-07-16 03:51:00,71.4,65.3,30.32,SSE,157,0.0,0.0,81,0.00,,,0.00,WUHU21623XXSP,2013-07-16 07:51:00,
2013-07-16 03:56:00,71.2,65.1,30.31,SSE,157,0.0,0.0,81,0.00,,,0.00,WUHU21623XXSP,2013-07-16 07:56:00,
2013-07-16 04:01:00,71.2,65.4,30.31,SSE,157,0.0,0.0,82,0.00,,,0.00,WUHU21623XXSP,2013-07-16 08:01:00,
2013-07-16 04:06:00,71.2,65.4,30.31,SSE,157,0.0,0.0,82,0.00,,,0.00,WUHU21623XXSP,2013-07-16 08:06:00,
2013-07-16 04:11:00,71.2,65.4,30.31,SSE,157,0.0,0.0,82,0.00,,,0.00,WUHU21623XXSP,2013-07-16 08:11:00,
2013-07-16 04:16:00,70.9,65.1,30.31,SSE,157,0.0,0.0,82,0.00,,,0.00,WUHU21623XXSP,2013-07-16 08:16:00,
2013-07-16 04:21:00,70.9,65.1,30.31,SSE,157,0.0,0.0,82,0.00,,,0.00,WUHU21623XXSP,2013-07-16 08:21:00,
2013-07-16 04:26:00,70.9,65.1,30.31,SSE,157,0.0,0.0,82,0.00,,,0.00,WUHU21623XXSP,2013-07-16 08:26:00,
2013-07-16 04:31:00,70.9,65.1,30.31,SSE,157,0.0,0.0,82,0.00,,,0.00,WUHU21623XXSP,2013-07-16 08:31:00,
2013-07-16 04:36:00,70.9,65.1,30.30,SSE,157,0.0,0.0,82,0.00,,,0.00,WUHU21623XXSP,2013-07-16 08:36:00,
2013-07-16 04:41:00,70.9,65.1,30.31,SSE,157,0.0,0.0,82,0.00,,,0.00,WUHU21623XXSP,2013-07-16 08:41:00,
2013-07-16 04:46:00,70.9,65.1,30.31,SSE,157,0.0,0.0,82,0.00,,,0.00,WUHU21623XXSP,2013-07-16 08:46:00,
2013-07-16 04:51:00,70.9,65.1,30.31,SSE,157,0.0,0.0,82,0.00,,,0.00,WUHU21623XXSP,2013-07-16 08:51:00,
2013-07-16 04:56:00,70.7,65.2,30.31,SSE,157,0.0,0.0,83,0.00,,,0.00,WUHU21623XXSP,2013-07-16 08:56:00,
2013-07-16 05:01:00,70.7,65.2,30.31,SSE,157,0.0,0.0,83,0.00,,,0.00,WUHU21623XXSP,2013-07-16 09:01:00,
2013-07-16 05:06:00,70.7,65.2,30.32,SSE,157,0.0,0.0,83,0.00,,,0.00,WUHU21623XXSP,2013-07-16 09:06:00,
2013-07-16 05:11:00,70.7,65.2,30.32,SSE,157,0.0,0.0,83,0.00,,,0.00,WUHU21623XXSP,2013-07-16 09:11:00,
2013-07-16 05:16:00,70.5,65.1,30.32,SSE,157,0.0,0.0,83,0.00,,,0.00,WUHU21623XXSP,2013-07-16 09:16:00,
2013-07-16 05:21:00,70.3,64.9,30.32,SSE,157,0.0,0.0,83,0.00,,,0.00,WUHU21623XXSP,2013-07-16 09:21:00,
2013-07-16 05:26:00,70.5,65.1,30.32,SSE,157,0.0,0.0,83,0.00,,,0.00,WUHU21623XXSP,2013-07-16 09:26:00,
2013-07-16 05:31:00,70.3,65.1,30.32,SSE,157,0.0,0.0,83,0.00,,,0.00,WUHU21623XXSP,2013-07-16 09:31:00,
2013-07-16 05:36:00,70.2,64.9,30.32,SSE,157,0.0,0.0,84,0.00,,,0.00,WUHU21623XXSP,2013-07-16 09:36:00,
2013-07-16 05:41:00,70.0,64.9,30.33,SSE,157,0.0,0.0,84,0.00,,,0.00,WUHU21623XXSP,2013-07-16 09:41:00,
2013-07-16 05:46:00,70.0,64.5,30.33,SSE,157,0.0,0.0,83,0.00,,,0.00,WUHU21623XXSP,2013-07-16 09:46:00,
2013-07-16 05:51:00,70.2,65.0,30.33,SSE,157,0.0,0.0,84,0.00,,,0.00,WUHU21623XXSP,2013-07-16 09:51:00,
2013-07-16 05:56:00,70.2,64.7,30.32,SSE,157,0.0,0.0,83,0.00,,,0.00,WUHU21623XXSP,2013-07-16 09:56:00,
2013-07-16 06:01:00,70.3,65.2,30.33,SSE,157,0.0,0.0,84,0.00,,,0.00,WUHU21623XXSP,2013-07-16 10:01:00,
2013-07-16 06:06:00,70.2,64.7,30.32,SSE,157,0.0,0.0,83,0.00,,,0.00,WUHU21623XXSP,2013-07-16 10:06:00,
2013-07-16 06:11:00,70.2,64.7,30.33,SSE,157,0.0,0.0,84,0.00,,,0.00,WUHU21623XXSP,2013-07-16 10:11:00,
2013-07-16 06:16:00,70.2,65.0,30.33,SSE,157,0.0,0.0,84,0.00,,,0.00,WUHU21623XXSP,2013-07-16 10:16:00,
2013-07-16 06:21:00,70.2,64.7,30.33,SSE,157,0.0,0.0,83,0.00,,,0.00,WUHU21623XXSP,2013-07-16 10:21:00,
2013-07-16 06:26:00,70.3,64.9,30.33,SSE,157,0.0,0.0,83,0.00,,,0.00,WUHU21623XXSP,2013-07-16 10:26:00,
2013-07-16 06:31:00,70.2,64.7,30.33,SSE,157,0.0,0.0,83,0.00,,,0.00,WUHU21623XXSP,2013-07-16 10:31:00,
2013-07-16 06:36:00,70.2,64.7,30.34,SSE,157,0.0,0.0,83,0.00,,,0.00,WUHU21623XXSP,2013-07-16 10:36:00,
2013-07-16 06:41:00,70.2,64.7,30.34,SSE,157,0.0,0.0,83,0.00,,,0.00,WUHU21623XXSP,2013-07-16 10:41:00,
2013-07-16 06:46:00,70.2,64.7,30.34,SSE,157,0.0,0.0,83,0.00,,,0.00,WUHU21623XXSP,2013-07-16 10:46:00,
2013-07-16 06:51:00,70.2,64.7,30.34,SSE,157,0.0,0.0,83,0.00,,,0.00,WUHU21623XXSP,2013-07-16 10:51:00,
2013-07-16 06:56:00,70.2,64.7,30.34,SSE,157,0.0,0.0,83,0.00,,,0.00,WUHU21623XXSP,2013-07-16 10:56:00,
2013-07-16 07:01:00,70.3,64.9,30.34,SSE,157,0.0,0.0,83,0.00,,,0.00,WUHU21623XXSP,2013-07-16 11:01:00,
2013-07-16 07:06:00,70.3,64.9,30.34,SSE,157,0.0,0.0,83,0.00,,,0.00,WUHU21623XXSP,2013-07-16 11:06:00,
2013-07-16 07:11:00,70.3,64.9,30.34,SSE,157,0.0,0.0,83,0.00,,,0.00,WUHU21623XXSP,2013-07-16 11:11:00,
2013-07-16 07:16:00,70.5,65.1,30.34,SSE,157,0.0,0.0,83,0.00,,,0.00,WUHU21623XXSP,2013-07-16 11:16:00,
2013-07-16 07:21:00,70.5,65.1,30.34,SSE,157,0.0,0.0,83,0.00,,,0.00,WUHU21623XXSP,2013-07-16 11:21:00,
2013-07-16 07:26:00,70.7,65.2,30.34,SSE,157,0.0,0.0,83,0.00,,,0.00,WUHU21623XXSP,2013-07-16 11:26:00,
2013-07-16 07:31:00,70.9,65.4,30.34,SSE,157,0.0,0.0,83,0.00,,,0.00,WUHU21623XXSP,2013-07-16 11:31:00,
2013-07-16 07:36:00,70.9,65.4,30.34,SSE,157,0.0,0.0,83,0.00,,,0.00,WUHU21623XXSP,2013-07-16 11:36:00,
2013-07-16 07:41:00,71.2,65.8,30.34,SSE,157,0.0,0.0,83,0.00,,,0.00,WUHU21623XXSP,2013-07-16 11:41:00,
2013-07-16 07:46:00,71.4,66.0,30.34,SSE,157,0.0,0.0,83,0.00,,,0.00,WUHU21623XXSP,2013-07-16 11:46:00,
2013-07-16 07:51:00,71.6,66.1,30.34,SSE,157,0.0,0.0,83,0.00,,,0.00,WUHU21623XXSP,2013-07-16 11:51:00,
2013-07-16 07:56:00,71.8,66.3,30.34,SSE,157,0.0,0.0,83,0.00,,,0.00,WUHU21623XXSP,2013-07-16 11:56:00,
2013-07-16 08:01:00,72.0,66.5,30.34,SSE,157,0.0,0.0,83,0.00,,,0.00,WUHU21623XXSP,2013-07-16 12:01:00,
2013-07-16 08:06:00,72.1,66.5,30.34,SSE,157,0.0,0.0,83,0.00,,,0.00,WUHU21623XXSP,2013-07-16 12:06:00,
2013-07-16 08:11:00,72.3,66.7,30.34,SSE,157,0.0,0.0,83,0.00,,,0.00,WUHU21623XXSP,2013-07-16 12:11:00,
2013-07-16 08:16:00,72.3,66.5,30.35,SSE,157,0.0,0.0,82,0.00,,,0.00,WUHU21623XXSP,2013-07-16 12:16:00,
2013-07-16 08:17:00,72.3,66.5,30.35,SSE,157,0.0,0.0,82,0.00,,,0.00,WUHU21623XXSP,2013-07-16 12:17:00,
2013-07-16 08:22:00,72.7,66.9,30.35,SSE,157,0.0,0.0,82,0.00,,,0.00,WUHU21623XXSP,2013-07-16 12:22:00,
2013-07-16 08:27:00,73.0,67.2,30.35,SSE,157,0.0,0.0,82,0.00,,,0.00,WUHU21623XXSP,2013-07-16 12:27:00,
2013-07-16 08:32:00,73.4,67.3,30.35,SSE,157,0.0,0.0,81,0.00,,,0.00,WUHU21623XXSP,2013-07-16 12:32:00,
2013-07-16 08:37:00,73.8,67.4,30.36,SSE,157,0.0,0.0,81,0.00,,,0.00,WUHU21623XXSP,2013-07-16 12:37:00,
2013-07-16 08:42:00,73.9,67.8,30.35,SSE,157,0.0,0.0,81,0.00,,,0.00,WUHU21623XXSP,2013-07-16 12:42:00,
2013-07-16 08:47:00,74.5,68.0,30.35,SSE,157,0.0,0.0,80,0.00,,,0.00,WUHU21623XXSP,2013-07-16 12:47:00,
2013-07-16 08:52:00,74.8,68.0,30.35,SSE,157,0.0,0.0,80,0.00,,,0.00,WUHU21623XXSP,2013-07-16 12:52:00,
2013-07-16 08:57:00,75.0,68.5,30.35,SSE,157,0.0,0.0,80,0.00,,,0.00,WUHU21623XXSP,2013-07-16 12:57:00,
2013-07-16 09:02:00,75.4,68.5,30.36,SSE,157,0.0,0.0,79,0.00,,,0.00,WUHU21623XXSP,2013-07-16 13:02:00,
2013-07-16 09:07:00,75.7,68.8,30.36,SSE,157,0.0,0.0,79,0.00,,,0.00,WUHU21623XXSP,2013-07-16 13:07:00,
2013-07-16 09:12:00,75.9,68.8,30.36,SSE,157,0.0,0.0,79,0.00,,,0.00,WUHU21623XXSP,2013-07-16 13:12:00,
2013-07-16 09:17:00,76.6,69.6,30.36,SSE,157,0.0,0.0,79,0.00,,,0.00,WUHU21623XXSP,2013-07-16 13:17:00,
2013-07-16 09:22:00,77.2,69.7,30.36,SSE,157,0.0,0.0,78,0.00,,,0.00,WUHU21623XXSP,2013-07-16 13:22:00,
2013-07-16 09:27:00,77.5,69.7,30.36,SSE,157,0.0,0.0,77,0.00,,,0.00,WUHU21623XXSP,2013-07-16 13:27:00,
2013-07-16 09:32:00,77.7,69.5,30.36,SSE,157,0.0,0.0,76,0.00,,,0.00,WUHU21623XXSP,2013-07-16 13:32:00,
2013-07-16 09:37:00,77.9,69.5,30.36,SSE,157,0.0,0.0,76,0.00,,,0.00,WUHU21623XXSP,2013-07-16 13:37:00,
2013-07-16 09:42:00,78.1,70.3,30.36,SSE,157,0.0,0.0,76,0.00,,,0.00,WUHU21623XXSP,2013-07-16 13:42:00,
2013-07-16 09:47:00,79.5,70.7,30.36,SSE,157,0.0,0.0,74,0.00,,,0.00,WUHU21623XXSP,2013-07-16 13:47:00,
2013-07-16 09:52:00,80.1,70.6,30.36,SSE,157,0.0,0.0,73,0.00,,,0.00,WUHU21623XXSP,2013-07-16 13:52:00,
2013-07-16 09:57:00,80.8,71.0,30.35,SSE,157,0.0,0.0,73,0.00,,,0.00,WUHU21623XXSP,2013-07-16 13:57:00,
2013-07-16 10:02:00,82.0,71.3,30.35,SSE,157,0.0,0.0,70,0.00,,,0.00,WUHU21623XXSP,2013-07-16 14:02:00,
2013-07-16 10:07:00,83.1,71.9,30.34,South,180,0.0,0.0,69,0.00,,,0.00,WUHU21623XXSP,2013-07-16 14:07:00,
2013-07-16 10:12:00,84.9,71.8,30.35,SSE,157,0.0,0.0,65,0.00,,,0.00,WUHU21623XXSP,2013-07-16 14:12:00,
2013-07-16 10:17:00,85.8,72.7,30.35,South,180,0.0,0.0,65,0.00,,,0.00,WUHU21623XXSP,2013-07-16 14:17:00,
2013-07-16 10:22:00,86.2,72.6,30.35,South,180,0.0,0.0,64,0.00,,,0.00,WUHU21623XXSP,2013-07-16 14:22:00,
2013-07-16 10:27:00,86.2,72.1,30.35,WSW,247,0.0,0.0,63,0.00,,,0.00,WUHU21623XXSP,2013-07-16 14:27:00,
2013-07-16 10:32:00,85.8,71.7,30.35,WSW,247,0.0,0.0,63,0.00,,,0.00,WUHU21623XXSP,2013-07-16 14:32:00,
2013-07-16 10:37:00,85.3,71.7,30.35,WSW,247,0.0,0.0,64,0.00,,,0.00,WUHU21623XXSP,2013-07-16 14:37:00,
2013-07-16 10:42:00,84.7,71.2,30.34,WSW,247,0.0,0.0,64,0.00,,,0.00,WUHU21623XXSP,2013-07-16 14:42:00,
2013-07-16 10:47:00,84.4,71.3,30.35,WSW,247,0.0,0.0,65,0.00,,,0.00,WUHU21623XXSP,2013-07-16 14:47:00,
2013-07-16 10:52:00,84.6,71.5,30.35,WSW,247,0.0,0.0,65,0.00,,,0.00,WUHU21623XXSP,2013-07-16 14:52:00,
2013-07-16 10:57:00,84.0,71.0,30.35,West,270,0.0,1.3,65,0.00,,,0.00,WUHU21623XXSP,2013-07-16 14:57:00,
2013-07-16 11:02:00,83.8,71.2,30.35,West,270,0.0,1.3,66,0.00,,,0.00,WUHU21623XXSP,2013-07-16 15:02:00,
2013-07-16 11:07:00,83.5,71.3,30.35,West,270,0.0,0.0,67,0.00,,,0.00,WUHU21623XXSP,2013-07-16 15:07:00,
2013-07-16 11:12:00,83.5,70.9,30.34,West,270,1.1,1.1,66,0.00,,,0.00,WUHU21623XXSP,2013-07-16 15:12:00,
2013-07-16 11:17:00,83.5,70.9,30.34,West,270,0.0,1.1,66,0.00,,,0.00,WUHU21623XXSP,2013-07-16 15:17:00,
2013-07-16 11:22:00,83.5,70.9,30.34,West,270,0.0,0.0,66,0.00,,,0.00,WUHU21623XXSP,2013-07-16 15:22:00,
2013-07-16 11:27:00,83.5,71.8,30.35,West,270,0.0,0.0,68,0.00,,,0.00,WUHU21623XXSP,2013-07-16 15:27:00,
2013-07-16 11:32:00,83.8,71.2,30.34,SW,225,2.0,2.0,66,0.00,,,0.00,WUHU21623XXSP,2013-07-16 15:32:00,
2013-07-16 11:37:00,84.0,71.9,30.34,SW,225,0.0,2.0,65,0.00,,,0.00,WUHU21623XXSP,2013-07-16 15:37:00,
2013-07-16 11:42:00,84.4,71.3,30.34,West,270,0.0,0.0,65,0.00,,,0.00,WUHU21623XXSP,2013-07-16 15:42:00,
2013-07-16 11:47:00,84.7,72.4,30.34,West,270,0.0,0.0,66,0.00,,,0.00,WUHU21623XXSP,2013-07-16 15:47:00,
2013-07-16 11:52:00,84.7,72.1,30.34,ENE,67,0.0,0.0,66,0.00,,,0.00,WUHU21623XXSP,2013-07-16 15:52:00,
2013-07-16 11:57:00,85.3,71.7,30.33,ENE,67,0.0,0.0,64,0.00,,,0.00,WUHU21623XXSP,2013-07-16 15:57:00,
2013-07-16 12:02:00,85.5,72.3,30.33,NNW,337,1.1,1.1,65,0.00,,,0.00,WUHU21623XXSP,2013-07-16 16:02:00,
2013-07-16 12:07:00,85.6,72.1,30.33,NNW,337,0.0,1.1,64,0.00,,,0.00,WUHU21623XXSP,2013-07-16 16:07:00,
2013-07-16 12:12:00,85.8,72.2,30.34,NNW,337,0.0,1.1,64,0.00,,,0.00,WUHU21623XXSP,2013-07-16 16:12:00,
2013-07-16 12:17:00,85.8,72.2,30.33,NNW,337,0.0,0.0,64,0.00,,,0.00,WUHU21623XXSP,2013-07-16 16:17:00,
2013-07-16 12:22:00,85.8,72.2,30.33,NNW,337,0.0,0.0,64,0.00,,,0.00,WUHU21623XXSP,2013-07-16 16:22:00,
2013-07-16 12:27:00,85.3,72.5,30.33,NNW,337,0.4,0.4,65,0.00,,,0.00,WUHU21623XXSP,2013-07-16 16:27:00,
2013-07-16 12:32:00,85.3,72.6,30.32,NNW,337,0.0,0.4,66,0.00,,,0.00,WUHU21623XXSP,2013-07-16 16:32:00,
2013-07-16 12:37:00,85.6,72.2,30.32,NNW,337,0.0,0.0,65,0.00,,,0.00,WUHU21623XXSP,2013-07-16 16:37:00,
2013-07-16 12:42:00,85.6,71.6,30.32,NNW,337,0.0,0.0,63,0.00,,,0.00,WUHU21623XXSP,2013-07-16 16:42:00,
2013-07-16 12:47:00,85.8,71.6,30.32,NNW,337,0.0,0.0,63,0.00,,,0.00,WUHU21623XXSP,2013-07-16 16:47:00,
2013-07-16 12:52:00,85.8,71.7,30.32,NNW,337,1.6,1.6,63,0.00,,,0.00,WUHU21623XXSP,2013-07-16 16:52:00,
2013-07-16 12:57:00,86.0,71.7,30.31,NNW,337,0.0,1.6,63,0.00,,,0.00,WUHU21623XXSP,2013-07-16 16:57:00,
2013-07-16 13:02:00,86.5,71.5,30.32,NE,45,0.0,1.6,61,0.00,,,0.00,WUHU21623XXSP,2013-07-16 17:02:00,
2013-07-16 13:07:00,86.9,71.7,30.32,NE,45,0.0,0.0,61,0.00,,,0.00,WUHU21623XXSP,2013-07-16 17:07:00,
2013-07-16 13:12:00,87.1,72.1,30.32,NE,45,0.0,0.0,61,0.00,,,0.00,WUHU21623XXSP,2013-07-16 17:12:00,
2013-07-16 13:17:00,87.1,72.1,30.32,NE,45,0.0,0.0,61,0.00,,,0.00,WUHU21623XXSP,2013-07-16 17:17:00,
2013-07-16 13:22:00,86.7,71.2,30.31,NE,45,0.0,0.0,60,0.00,,,0.00,WUHU21623XXSP,2013-07-16 17:22:00,
2013-07-16 13:27:00,87.4,72.4,30.31,NE,45,0.0,0.0,61,0.00,,,0.00,WUHU21623XXSP,2013-07-16 17:27:00,
2013-07-16 13:32:00,87.6,71.6,30.31,NE,45,0.0,0.0,59,0.00,,,0.00,WUHU21623XXSP,2013-07-16 17:32:00,
2013-07-16 13:37:00,87.4,72.0,30.31,NE,45,0.0,0.0,60,0.00,,,0.00,WUHU21623XXSP,2013-07-16 17:37:00,
2013-07-16 13:42:00,87.1,71.1,30.31,NE,45,0.0,0.0,59,0.00,,,0.00,WUHU21623XXSP,2013-07-16 17:42:00,
2013-07-16 13:47:00,87.6,70.5,30.30,SE,135,0.0,2.9,57,0.00,,,0.00,WUHU21623XXSP,2013-07-16 17:47:00,
2013-07-16 13:52:00,87.4,70.9,30.31,SE,135,0.0,2.9,58,0.00,,,0.00,WUHU21623XXSP,2013-07-16 17:52:00,
2013-07-16 13:57:00,87.4,72.0,30.30,SE,135,0.0,0.0,60,0.00,,,0.00,WUHU21623XXSP,2013-07-16 17:57:00,
2013-07-16 14:02:00,87.6,71.6,30.30,ENE,67,0.0,0.0,59,0.00,,,0.00,WUHU21623XXSP,2013-07-16 18:02:00,
2013-07-16 14:07:00,87.6,71.1,30.29,East,90,0.0,0.0,58,0.00,,,0.00,WUHU21623XXSP,2013-07-16 18:07:00,
2013-07-16 14:12:00,87.6,71.6,30.30,East,90,0.0,0.0,59,0.00,,,0.00,WUHU21623XXSP,2013-07-16 18:12:00,
2013-07-16 14:17:00,87.6,71.6,30.30,ENE,67,0.0,0.0,59,0.00,,,0.00,WUHU21623XXSP,2013-07-16 18:17:00,
2013-07-16 14:22:00,87.6,71.6,30.30,ENE,67,0.0,0.0,59,0.00,,,0.00,WUHU21623XXSP,2013-07-16 18:22:00,
2013-07-16 14:27:00,88.0,71.9,30.30,ENE,67,0.0,0.0,59,0.00,,,0.00,WUHU21623XXSP,2013-07-16 18:27:00,
2013-07-16 14:32:00,88.3,72.8,30.30,ENE,67,0.0,0.0,60,0.00,,,0.00,WUHU21623XXSP,2013-07-16 18:32:00,
2013-07-16 14:37:00,88.5,73.0,30.30,ENE,67,0.0,0.0,60,0.00,,,0.00,WUHU21623XXSP,2013-07-16 18:37:00,
2013-07-16 14:42:00,88.3,72.3,30.30,ENE,67,0.0,0.0,59,0.00,,,0.00,WUHU21623XXSP,2013-07-16 18:42:00,
2013-07-16 14:47:00,88.0,71.9,30.29,ENE,67,0.0,0.0,59,0.00,,,0.00,WUHU21623XXSP,2013-07-16 18:47:00,
2013-07-16 14:52:00,87.6,71.8,30.29,ENE,67,0.0,0.0,59,0.00,,,0.00,WUHU21623XXSP,2013-07-16 18:52:00,
2013-07-16 14:57:00,87.6,71.1,30.29,ENE,67,0.0,0.0,58,0.00,,,0.00,WUHU21623XXSP,2013-07-16 18:57:00,
2013-07-16 15:02:00,87.6,71.6,30.29,ENE,67,0.0,0.0,59,0.00,,,0.00,WUHU21623XXSP,2013-07-16 19:02:00,
2013-07-16 15:07:00,88.0,71.9,30.29,ENE,67,0.0,0.0,59,0.00,,,0.00,WUHU21623XXSP,2013-07-16 19:07:00,
2013-07-16 15:12:00,88.5,73.4,30.28,ENE,67,0.0,0.9,61,0.00,,,0.00,WUHU21623XXSP,2013-07-16 19:12:00,
2013-07-16 15:17:00,88.5,73.0,30.29,NW,315,0.0,6.9,60,0.00,,,0.00,WUHU21623XXSP,2013-07-16 19:17:00,
2013-07-16 15:22:00,88.3,72.3,30.29,WNW,292,1.6,6.9,59,0.00,,,0.00,WUHU21623XXSP,2013-07-16 19:22:00,
2013-07-16 15:27:00,87.8,71.8,30.28,NW,315,0.9,1.6,59,0.00,,,0.00,WUHU21623XXSP,2013-07-16 19:27:00,
2013-07-16 15:32:00,87.6,72.1,30.28,WNW,292,0.0,1.6,60,0.00,,,0.00,WUHU21623XXSP,2013-07-16 19:32:00,
2013-07-16 15:37:00,87.6,72.1,30.28,NW,315,0.0,0.0,60,0.00,,,0.00,WUHU21623XXSP,2013-07-16 19:37:00,
2013-07-16 15:42:00,87.6,73.0,30.28,NW,315,1.1,1.1,62,0.00,,,0.00,WUHU21623XXSP,2013-07-16 19:42:00,
2013-07-16 15:47:00,88.0,73.4,30.28,WNW,292,0.0,1.1,62,0.00,,,0.00,WUHU21623XXSP,2013-07-16 19:47:00,
2013-07-16 15:52:00,88.2,72.6,30.28,WNW,292,1.3,4.7,60,0.00,,,0.00,WUHU21623XXSP,2013-07-16 19:52:00,
2013-07-16 15:57:00,88.2,72.8,30.28,West,270,0.0,4.7,60,0.00,,,0.00,WUHU21623XXSP,2013-07-16 19:57:00,
2013-07-16 16:02:00,88.0,72.5,30.28,West,270,0.0,1.3,61,0.00,,,0.00,WUHU21623XXSP,2013-07-16 20:02:00,
2013-07-16 16:07:00,87.6,72.6,30.27,West,270,0.0,0.0,61,0.00,,,0.00,WUHU21623XXSP,2013-07-16 20:07:00,
2013-07-16 16:12:00,87.4,72.4,30.27,West,270,0.0,0.0,61,0.00,,,0.00,WUHU21623XXSP,2013-07-16 20:12:00,
2013-07-16 16:17:00,87.4,72.0,30.27,West,270,0.0,0.0,60,0.00,,,0.00,WUHU21623XXSP,2013-07-16 20:17:00,
2013-07-16 16:22:00,87.6,72.6,30.26,West,270,0.0,0.0,61,0.00,,,0.00,WUHU21623XXSP,2013-07-16 20:22:00,
2013-07-16 16:27:00,88.3,72.6,30.27,West,270,0.0,0.0,60,0.00,,,0.00,WUHU21623XXSP,2013-07-16 20:27:00,
2013-07-16 16:32:00,88.3,73.3,30.27,WNW,292,2.2,2.2,61,0.00,,,0.00,WUHU21623XXSP,2013-07-16 20:32:00,
2013-07-16 16:37:00,88.3,72.8,30.27,WNW,292,2.2,2.2,60,0.00,,,0.00,WUHU21623XXSP,2013-07-16 20:37:00,
2013-07-16 16:42:00,88.3,72.3,30.26,WNW,292,2.7,2.7,59,0.00,,,0.00,WUHU21623XXSP,2013-07-16 20:42:00,
2013-07-16 16:47:00,88.5,71.9,30.27,NW,315,2.5,2.7,58,0.00,,,0.00,WUHU21623XXSP,2013-07-16 20:47:00,
2013-07-16 16:52:00,88.3,71.9,30.27,WNW,292,8.5,8.5,58,0.00,,,0.00,WUHU21623XXSP,2013-07-16 20:52:00,
2013-07-16 16:57:00,85.5,70.5,30.28,NW,315,8.1,8.5,61,0.00,,,0.00,WUHU21623XXSP,2013-07-16 20:57:00,
2013-07-16 17:02:00,83.8,69.9,30.28,NNW,337,6.7,14.8,63,0.00,,,0.00,WUHU21623XXSP,2013-07-16 21:02:00,
2013-07-16 17:07:00,82.6,70.0,30.30,North,0,1.3,14.8,66,0.00,,,0.00,WUHU21623XXSP,2013-07-16 21:07:00,
2013-07-16 17:12:00,81.5,70.3,30.30,North,0,0.9,6.7,69,0.00,,,0.00,WUHU21623XXSP,2013-07-16 21:12:00,
2013-07-16 17:17:00,79.7,70.3,30.30,NE,45,3.4,4.3,73,0.00,,,0.00,WUHU21623XXSP,2013-07-16 21:17:00,
2013-07-16 17:22:00,77.5,69.9,30.30,NE,45,2.7,4.3,77,0.00,,,0.00,WUHU21623XXSP,2013-07-16 21:22:00,
2013-07-16 17:27:00,76.6,69.6,30.30,NE,45,0.0,4.0,79,0.00,,,0.00,WUHU21623XXSP,2013-07-16 21:27:00,
2013-07-16 17:32:00,76.1,69.3,30.30,NE,45,0.0,0.0,80,0.00,,,0.00,WUHU21623XXSP,2013-07-16 21:32:00,
2013-07-16 17:37:00,75.4,69.2,30.31,SE,135,0.0,0.0,80,0.01,,,0.01,WUHU21623XXSP,2013-07-16 21:37:00,
2013-07-16 17:42:00,75.0,68.5,30.31,SE,135,0.0,0.0,80,0.03,,,0.03,WUHU21623XXSP,2013-07-16 21:42:00,
2013-07-16 17:47:00,75.0,68.9,30.32,SE,135,0.0,0.0,81,0.04,,,0.04,WUHU21623XXSP,2013-07-16 21:47:00,
2013-07-16 17:52:00,75.0,68.9,30.31,SE,135,0.0,0.0,81,0.04,,,0.04,WUHU21623XXSP,2013-07-16 21:52:00,
2013-07-16 17:57:00,75.0,68.9,30.29,SE,135,0.0,0.0,81,0.04,,,0.04,WUHU21623XXSP,2013-07-16 21:57:00,
2013-07-16 18:02:00,75.0,68.9,30.30,SE,135,0.0,0.0,81,0.04,,,0.04,WUHU21623XXSP,2013-07-16 22:02:00,
2013-07-16 18:03:00,75.0,68.9,30.30,SE,135,0.0,0.0,81,0.04,,,0.04,WUHU21623XXSP,2013-07-16 22:03:00,
2013-07-16 18:08:00,74.8,68.7,30.30,SE,135,0.0,0.0,81,0.04,,,0.04,WUHU21623XXSP,2013-07-16 22:08:00,
2013-07-16 18:13:00,74.3,68.5,30.29,ESE,112,0.0,0.0,82,0.04,,,0.04,WUHU21623XXSP,2013-07-16 22:13:00,
2013-07-16 18:18:00,73.9,68.5,30.29,ESE,112,0.0,0.0,83,0.04,,,0.04,WUHU21623XXSP,2013-07-16 22:18:00,
2013-07-16 18:23:00,73.9,68.5,30.29,ESE,112,0.0,0.0,83,0.04,,,0.04,WUHU21623XXSP,2013-07-16 22:23:00,
2013-07-16 18:28:00,74.1,69.0,30.29,SE,135,0.0,0.0,84,0.04,,,0.04,WUHU21623XXSP,2013-07-16 22:28:00,
2013-07-16 18:33:00,74.1,69.0,30.29,SE,135,0.0,0.0,84,0.04,,,0.04,WUHU21623XXSP,2013-07-16 22:33:00,
2013-07-16 18:38:00,74.1,68.7,30.30,SE,135,0.0,0.0,83,0.03,,,0.04,WUHU21623XXSP,2013-07-16 22:38:00,
2013-07-16 18:43:00,74.1,68.7,30.29,SE,135,0.0,0.0,83,0.01,,,0.04,WUHU21623XXSP,2013-07-16 22:43:00,
2013-07-16 18:48:00,74.1,68.7,30.29,SE,135,0.0,0.0,83,0.00,,,0.04,WUHU21623XXSP,2013-07-16 22:48:00,
2013-07-16 18:53:00,74.1,68.7,30.30,SE,135,0.0,0.0,83,0.00,,,0.04,WUHU21623XXSP,2013-07-16 22:53:00,
2013-07-16 18:58:00,74.1,68.7,30.31,SE,135,0.0,0.0,83,0.00,,,0.04,WUHU21623XXSP,2013-07-16 22:58:00,
2013-07-16 19:03:00,74.1,68.7,30.30,SE,135,0.0,0.0,83,0.00,,,0.04,WUHU21623XXSP,2013-07-16 23:03:00,
2013-07-16 19:08:00,74.1,69.0,30.30,SE,135,0.0,0.0,84,0.00,,,0.04,WUHU21623XXSP,2013-07-16 23:08:00,
2013-07-16 19:13:00,74.1,69.3,30.31,SE,135,0.0,0.0,85,0.00,,,0.04,WUHU21623XXSP,2013-07-16 23:13:00,
2013-07-16 19:18:00,74.1,69.3,30.31,SE,135,0.0,0.0,85,0.00,,,0.04,WUHU21623XXSP,2013-07-16 23:18:00,
2013-07-16 19:23:00,74.3,69.5,30.30,SE,135,0.0,0.0,85,0.00,,,0.04,WUHU21623XXSP,2013-07-16 23:23:00,
2013-07-16 19:28:00,74.3,69.5,30.30,SE,135,0.0,0.0,85,0.00,,,0.04,WUHU21623XXSP,2013-07-16 23:28:00,
2013-07-16 19:33:00,74.1,69.3,30.30,SE,135,0.0,0.0,85,0.00,,,0.04,WUHU21623XXSP,2013-07-16 23:33:00,
2013-07-16 19:38:00,74.3,69.5,30.30,SE,135,0.0,0.0,85,0.00,,,0.04,WUHU21623XXSP,2013-07-16 23:38:00,
2013-07-16 19:43:00,74.5,69.7,30.30,SE,135,0.0,0.0,85,0.00,,,0.04,WUHU21623XXSP,2013-07-16 23:43:00,
2013-07-16 19:48:00,74.5,69.7,30.29,SE,135,0.0,0.0,85,0.00,,,0.04,WUHU21623XXSP,2013-07-16 23:48:00,
2013-07-16 19:53:00,74.5,69.7,30.30,SE,135,0.0,0.0,85,0.00,,,0.04,WUHU21623XXSP,2013-07-16 23:53:00,
2013-07-16 19:58:00,74.3,69.5,30.30,SE,135,0.0,0.0,85,0.00,,,0.04,WUHU21623XXSP,2013-07-16 23:58:00,
2013-07-16 20:03:00,74.3,69.5,30.30,SE,135,0.0,0.0,85,0.00,,,0.04,WUHU21623XXSP,2013-07-17 00:03:00,
2013-07-16 20:08:00,74.3,69.5,30.31,SE,135,0.0,0.0,85,0.00,,,0.04,WUHU21623XXSP,2013-07-17 00:08:00,
2013-07-16 20:13:00,74.1,69.3,30.30,SE,135,0.0,0.0,85,0.00,,,0.04,WUHU21623XXSP,2013-07-17 00:13:00,
2013-07-16 20:18:00,74.1,69.3,30.31,SE,135,0.0,0.0,85,0.00,,,0.04,WUHU21623XXSP,2013-07-17 00:18:00,
2013-07-16 20:23:00,74.1,69.3,30.31,SE,135,0.0,0.0,85,0.00,,,0.04,WUHU21623XXSP,2013-07-17 00:23:00,
2013-07-16 20:28:00,74.1,69.3,30.30,SE,135,0.0,0.0,85,0.00,,,0.04,WUHU21623XXSP,2013-07-17 00:28:00,
2013-07-16 20:33:00,74.1,69.3,30.30,SE,135,0.0,0.0,85,0.00,,,0.04,WUHU21623XXSP,2013-07-17 00:33:00,
2013-07-16 20:38:00,74.1,69.3,30.30,SE,135,0.0,0.0,85,0.00,,,0.04,WUHU21623XXSP,2013-07-17 00:38:00,
2013-07-16 20:43:00,73.9,69.2,30.29,SE,135,0.0,0.0,85,0.00,,,0.04,WUHU21623XXSP,2013-07-17 00:43:00,
2013-07-16 20:48:00,73.9,69.2,30.30,SE,135,0.0,0.0,85,0.00,,,0.04,WUHU21623XXSP,2013-07-17 00:48:00,
2013-07-16 20:53:00,73.9,69.2,30.30,SE,135,0.0,0.0,85,0.00,,,0.04,WUHU21623XXSP,2013-07-17 00:53:00,
2013-07-16 20:58:00,73.9,69.2,30.30,SSE,157,0.0,0.0,85,0.00,,,0.04,WUHU21623XXSP,2013-07-17 00:58:00,
2013-07-16 21:03:00,73.9,69.2,30.30,SSE,157,0.0,0.0,85,0.00,,,0.04,WUHU21623XXSP,2013-07-17 01:03:00,
2013-07-16 21:08:00,73.9,69.2,30.30,SSE,157,0.0,0.0,85,0.00,,,0.04,WUHU21623XXSP,2013-07-17 01:08:00,
2013-07-16 21:13:00,73.8,69.2,30.30,SSE,157,0.0,0.0,85,0.00,,,0.04,WUHU21623XXSP,2013-07-17 01:13:00,
2013-07-16 21:18:00,73.8,69.0,30.30,SSE,157,0.0,0.0,85,0.00,,,0.04,WUHU21623XXSP,2013-07-17 01:18:00,
2013-07-16 21:23:00,73.8,69.0,30.31,SSE,157,0.0,0.0,85,0.00,,,0.04,WUHU21623XXSP,2013-07-17 01:23:00,
2013-07-16 21:28:00,73.8,69.0,30.30,SSE,157,0.0,0.0,85,0.00,,,0.04,WUHU21623XXSP,2013-07-17 01:28:00,
2013-07-16 21:33:00,73.8,69.0,30.30,SSE,157,0.0,0.0,85,0.00,,,0.04,WUHU21623XXSP,2013-07-17 01:33:00,
2013-07-16 21:38:00,73.8,69.0,30.30,SSE,157,0.0,0.0,85,0.00,,,0.04,WUHU21623XXSP,2013-07-17 01:38:00,
2013-07-16 21:43:00,73.6,68.8,30.31,SSE,157,0.0,0.0,85,0.00,,,0.04,WUHU21623XXSP,2013-07-17 01:43:00,
2013-07-16 21:48:00,73.6,69.2,30.31,SSE,157,0.0,0.0,86,0.00,,,0.04,WUHU21623XXSP,2013-07-17 01:48:00,
2013-07-16 21:53:00,73.6,69.2,30.31,SSE,157,0.0,0.0,86,0.00,,,0.04,WUHU21623XXSP,2013-07-17 01:53:00,
2013-07-16 21:58:00,73.4,69.0,30.30,SSE,157,0.0,0.0,86,0.00,,,0.04,WUHU21623XXSP,2013-07-17 01:58:00,
2013-07-16 22:03:00,73.2,68.8,30.31,SSE,157,0.0,0.0,86,0.00,,,0.04,WUHU21623XXSP,2013-07-17 02:03:00,
2013-07-16 22:08:00,73.0,68.6,30.31,SSE,157,0.0,0.0,86,0.00,,,0.04,WUHU21623XXSP,2013-07-17 02:08:00,
2013-07-16 22:13:00,73.2,68.8,30.31,SSE,157,0.0,0.0,86,0.00,,,0.04,WUHU21623XXSP,2013-07-17 02:13:00,
2013-07-16 22:18:00,73.2,68.8,30.32,SSE,157,0.0,0.0,86,0.00,,,0.04,WUHU21623XXSP,2013-07-17 02:18:00,
2013-07-16 22:23:00,73.2,68.8,30.31,SSE,157,0.0,0.0,86,0.00,,,0.04,WUHU21623XXSP,2013-07-17 02:23:00,
2013-07-16 22:28:00,73.0,68.6,30.31,SSE,157,0.0,0.0,86,0.00,,,0.04,WUHU21623XXSP,2013-07-17 02:28:00,
2013-07-16 22:33:00,73.0,68.6,30.32,SSE,157,0.0,0.0,86,0.00,,,0.04,WUHU21623XXSP,2013-07-17 02:33:00,
2013-07-16 22:38:00,73.0,68.6,30.32,SSE,157,0.0,0.0,86,0.00,,,0.04,WUHU21623XXSP,2013-07-17 02:38:00,
2013-07-16 22:43:00,73.0,68.6,30.32,SSE,157,0.0,0.0,86,0.00,,,0.04,WUHU21623XXSP,2013-07-17 02:43:00,
2013-07-16 22:48:00,73.0,68.6,30.32,SSE,157,0.0,0.0,86,0.00,,,0.04,WUHU21623XXSP,2013-07-17 02:48:00,
2013-07-16 22:53:00,73.0,68.6,30.32,SSE,157,0.0,0.0,86,0.00,,,0.04,WUHU21623XXSP,2013-07-17 02:53:00,
2013-07-16 22:58:00,73.0,68.6,30.32,SSE,157,0.0,0.0,86,0.00,,,0.04,WUHU21623XXSP,2013-07-17 02:58:00,
2013-07-16 23:03:00,73.0,68.6,30.32,SSE,157,0.0,0.0,86,0.00,,,0.04,WUHU21623XXSP,2013-07-17 03:03:00,
2013-07-16 23:08:00,73.0,68.6,30.32,SSE,157,0.0,0.0,86,0.00,,,0.04,WUHU21623XXSP,2013-07-17 03:08:00,
2013-07-16 23:13:00,73.0,68.6,30.32,SSE,157,0.0,0.0,86,0.00,,,0.04,WUHU21623XXSP,2013-07-17 03:13:00,
2013-07-16 23:18:00,72.7,68.3,30.32,SSE,157,0.0,0.0,86,0.00,,,0.04,WUHU21623XXSP,2013-07-17 03:18:00,
2013-07-16 23:23:00,72.7,68.3,30.32,SSE,157,0.0,0.0,86,0.00,,,0.04,WUHU21623XXSP,2013-07-17 03:23:00,
2013-07-16 23:28:00,72.7,68.3,30.32,SSE,157,0.0,0.0,86,0.00,,,0.04,WUHU21623XXSP,2013-07-17 03:28:00,
2013-07-16 23:33:00,72.7,68.3,30.32,SSE,157,0.0,0.0,86,0.00,,,0.04,WUHU21623XXSP,2013-07-17 03:33:00,
2013-07-16 23:38:00,72.7,68.3,30.31,SSE,157,0.0,0.0,86,0.00,,,0.04,WUHU21623XXSP,2013-07-17 03:38:00,
2013-07-16 23:43:00,72.7,68.3,30.31,SSE,157,0.0,0.0,86,0.00,,,0.04,WUHU21623XXSP,2013-07-17 03:43:00,
2013-07-16 23:48:00,72.5,68.1,30.32,SSE,157,0.0,0.0,86,0.00,,,0.04,WUHU21623XXSP,2013-07-17 03:48:00,
2013-07-16 23:53:00,72.5,68.1,30.32,SSE,157,0.0,0.0,86,0.00,,,0.04,WUHU21623XXSP,2013-07-17 03:53:00,
2013-07-16 23:58:00,72.5,68.1,30.32,SSE,157,0.0,0.0,86,0.00,,,0.04,WUHU21623XXSP,2013-07-17 03:58:00,